Home   Weather   Kristiansund   Past weeks

Flag for Norway Past Weather in Kristiansund, Norway — Yesterday and Last 2 Weeks

Now
46 °F

Passing clouds.


Feels Like: 39 °F
Forecast: 42 / 46 °F
Wind: 21 mph from Southwest

Location: Kristiansund / Kvernberget

Current Time: Dec 9, 2016 at 3:10:42 am

Latest Report: Dec 9, 2016 at 2:20 am


Visibility: N/A

Pressure: 29.56 "Hg

Humidity: 93%

Dew Point: 45 °F

Location of KristiansundLocation

Past Weather in Kristiansund — Graph

°F

Kristiansund Temperature Yesterday

Maximum temperature yesterday: 48 °F (at 4:20 am)
Minimum temperature yesterday: 45 °F (at 12:20 am)
Average temperature yesterday: 47 °F

High & Low Weather Summary for the Past Weeks

 TemperatureHumidityPressure
High50 °F (Nov 25, 9:50 am)100% (Nov 24, 10:50 pm)30.45 "Hg (Nov 24, 10:50 pm)
Low32 °F (Nov 27, 4:50 pm)49% (Dec 2, 4:20 pm)29.30 "Hg (Dec 8, 4:20 am)
Average41 °F84%29.94 "Hg
* Reported Nov 24 1:20 am — Dec 9 1:50 am, Kristiansund, Weather by CustomWeather, © 2016

Note: Actual official high and low records may vary slightly from our data, if they occured in-between our weather recording intervals... More about our weather records

Advertising

Kristiansund Weather History for the Previous 24 Hours

Scroll right to see more
 ConditionsComfort  
Time TempWeatherWind HumidityBarometerVisibility
1:50 am
Fri, Dec 9
46 °FDrizzle. Overcast.21 mph93%29.59 "Hg2 mi
1:20 am46 °FDrizzle. Mostly cloudy.21 mph93%29.59 "HgN/A
12:50 am48 °FMostly cloudy.24 mph87%29.59 "HgN/A
12:20 am48 °FOvercast.31 mph87%29.59 "HgN/A
11:50 pm
Thu, Dec 8
48 °FOvercast.25 mph87%29.59 "HgN/A
11:20 pm48 °FPassing clouds.24 mph94%29.59 "HgN/A
10:50 pm48 °FSprinkles. Partly cloudy.22 mph94%29.59 "Hg5 mi
10:20 pm48 °FSprinkles. Partly cloudy.23 mph87%29.59 "Hg6 mi
9:50 pm48 °FPartly cloudy.22 mph87%29.62 "HgN/A
9:20 pm48 °FPartly cloudy.17 mph87%29.62 "HgN/A
8:50 pm48 °FPartly cloudy.18 mph94%29.62 "HgN/A
8:20 pm48 °FSprinkles. Partly cloudy.22 mph94%29.62 "Hg3 mi
7:50 pm48 °FPartly cloudy.25 mph94%29.62 "Hg6 mi
7:20 pm48 °FScattered showers. Partly cloudy.20 mph94%29.62 "HgN/A
6:50 pm48 °FScattered showers. Partly cloudy.23 mph94%29.62 "HgN/A
6:20 pm48 °FPartly cloudy.24 mph94%29.65 "Hg3 mi
5:50 pm46 °FSleet. Partly cloudy.13 mph100%29.65 "HgN/A
5:20 pm46 °FPartly cloudy.10 mph93%29.65 "HgN/A
4:50 pm46 °FPartly cloudy.13 mph93%29.65 "HgN/A
4:20 pm46 °FPartly cloudy.15 mph93%29.65 "HgN/A
3:50 pm46 °FScattered showers. Partly cloudy.21 mph93%29.65 "HgN/A
3:20 pm46 °FSleet. Partly cloudy.23 mph93%29.65 "HgN/A
2:50 pm46 °FDrizzle. Low clouds.22 mph93%29.65 "Hg5 mi
2:20 pm46 °FSleet. Fog.24 mph93%29.65 "HgN/A
1:50 pm46 °FDrizzle. Fog.25 mph100%29.62 "Hg2 mi
1:20 pm46 °FDrizzle. Dense fog.26 mph100%29.62 "Hg1 mi
12:50 pm46 °FDrizzle. Dense fog.24 mph100%29.62 "Hg1 mi
12:20 pm46 °FDrizzle. Dense fog.23 mph100%29.59 "Hg1 mi
11:50 am46 °FDrizzle. Dense fog.23 mph100%29.56 "Hg2 mi
11:20 am46 °FDrizzle. Dense fog.23 mph100%29.56 "Hg1 mi
10:50 am46 °FDrizzle. Broken clouds.18 mph100%29.53 "Hg5 mi
10:20 am48 °FDrizzle. Broken clouds.15 mph94%29.47 "Hg5 mi
9:50 am48 °FPartly cloudy.16 mph100%29.45 "Hg1 mi
9:20 am48 °FPartly cloudy.16 mph100%29.42 "Hg2 mi
8:50 am48 °FLight rain. Partly cloudy.16 mph100%29.39 "Hg2 mi
8:20 am46 °FLight rain. Partly cloudy.8 mph100%29.36 "Hg3 mi
7:50 am46 °FSleet. Partly cloudy.2 mph93%29.36 "Hg4 mi
7:20 am45 °FDrizzle. Fog.No wind100%29.33 "Hg2 mi
6:50 am46 °FPassing clouds.1 mph93%29.33 "Hg2 mi
6:20 am46 °FSleet. Partly cloudy.5 mph93%29.30 "HgN/A
5:50 am46 °FPartly cloudy.5 mph93%29.30 "HgN/A
5:20 am46 °FMostly cloudy.6 mph93%29.30 "HgN/A
4:50 am46 °FPassing clouds.5 mph100%29.30 "HgN/A
4:20 am48 °FDrizzle. Overcast.No wind94%29.30 "Hg5 mi
3:50 am46 °FRain. Low clouds.1 mph100%29.33 "Hg3 mi
3:20 am46 °FRain. Partly cloudy.3 mph100%29.33 "Hg4 mi
Weather by CustomWeather, © 2016

See weather overviewHow to use our weather pages